Location: Elstree
(51.6403°N, 0.2969°W)
Time: 17:05:47
(UTC+00:00)

NOSS 3-3 (C) - Pass Details

Date: 03 March 2021
Orbit: 813 x 1399 km, 63.4° (Epoch: 15 April)

Event Time Altitude Azimuth Distance (km) Brightness Sun altitude
Rises 20:06:08 0° 313° (NW) 3,872 8.2 -22.4°
Reaches altitude 10° 20:08:39 10° 315° (NW) 2,994 7.4 -22.8°
Maximum altitude 20:15:56 77° 42° (NE) 1,271 4.4 -23.8°
Enters shadow 20:18:50 44° 118° (ESE) 1,709 4.7 -24.2°
